Satellite-Ground Cal/Val Region Overpasses Predictions

Prediction of Satellite NPP Overpassing Cal/Val Region: PacNW

Region Location: (Latitude: 10.00, Longitude: 139.50) to (Latitude: 22.70, Longitude: 165.60).

Table of predicted overpasses for the next 14.0 days since TLE Epoch: 9/4/2022
Interval Starting Time Starting Location Ending Time Ending Location
1 09/04/2022 15:43:51 ( 22.68, 149.07) 09/04/2022 15:47:27 ( 10.01, 146.06)
2 09/05/2022 02:52:56 ( 10.04, 156.59) 09/05/2022 02:56:31 ( 22.66, 153.58)
3 09/05/2022 15:24:49 ( 22.69, 153.83) 09/05/2022 15:28:25 ( 10.01, 150.81)
4 09/06/2022 02:33:55 ( 10.03, 161.34) 09/06/2022 02:37:30 ( 22.66, 158.34)
5 09/06/2022 15:05:48 ( 22.69, 158.59) 09/06/2022 15:09:24 ( 10.02, 155.57)
6 09/07/2022 02:15:31 ( 12.26, 165.59) 09/07/2022 02:18:28 ( 22.65, 163.10)
7 09/07/2022 03:56:23 ( 10.03, 140.73) 09/07/2022 03:57:53 ( 15.32, 139.50)
8 09/07/2022 14:46:46 ( 22.70, 163.35) 09/07/2022 14:50:22 ( 10.02, 160.33)
9 09/08/2022 03:37:22 ( 10.03, 145.48) 09/08/2022 03:40:57 ( 22.65, 142.48)
10 09/08/2022 14:30:43 ( 12.26, 165.60) 09/08/2022 14:31:21 ( 10.02, 165.08)
11 09/08/2022 16:09:15 ( 22.70, 142.73) 09/08/2022 16:12:51 ( 10.02, 139.71)
12 09/09/2022 03:18:20 ( 10.03, 150.24) 09/09/2022 03:21:55 ( 22.65, 147.24)
13 09/09/2022 15:50:14 ( 22.64, 147.47) 09/09/2022 15:53:49 ( 10.02, 144.47)
14 09/10/2022 02:59:19 ( 10.03, 155.00) 09/10/2022 03:02:54 ( 22.65, 151.99)
15 09/10/2022 15:31:13 ( 22.64, 152.23) 09/10/2022 15:34:48 ( 10.02, 149.22)
16 09/11/2022 02:40:18 ( 10.02, 159.75) 09/11/2022 02:43:53 ( 22.65, 156.75)
17 09/11/2022 15:12:11 ( 22.65, 156.98) 09/11/2022 15:15:46 ( 10.03, 153.98)
18 09/12/2022 02:21:16 ( 10.02, 164.51) 09/12/2022 02:24:51 ( 22.65, 161.51)
19 09/12/2022 14:53:10 ( 22.65, 161.74) 09/12/2022 14:56:45 ( 10.03, 158.74)
20 09/13/2022 03:43:45 ( 10.03, 143.89) 09/13/2022 03:47:20 ( 22.65, 140.89)
21 09/13/2022 14:35:11 ( 18.95, 165.59) 09/13/2022 14:37:43 ( 10.03, 163.49)
22 09/13/2022 16:15:38 ( 22.64, 141.12) 09/13/2022 16:17:31 ( 16.02, 139.51)
23 09/14/2022 03:24:43 ( 10.03, 148.65) 09/14/2022 03:28:18 ( 22.65, 145.64)
24 09/14/2022 15:56:37 ( 22.64, 145.88) 09/14/2022 16:00:12 ( 10.03, 142.88)
25 09/15/2022 03:05:42 ( 10.03, 153.40) 09/15/2022 03:09:17 ( 22.65, 150.40)
26 09/15/2022 15:37:35 ( 22.64, 150.63) 09/15/2022 15:41:10 ( 10.03, 147.63)
27 09/16/2022 02:46:40 ( 10.03, 158.16) 09/16/2022 02:50:15 ( 22.65, 155.16)
28 09/16/2022 15:18:34 ( 22.64, 155.39) 09/16/2022 15:22:09 ( 10.02, 152.39)
29 09/17/2022 02:27:39 ( 10.03, 162.92) 09/17/2022 02:31:14 ( 22.65, 159.91)
30 09/17/2022 14:59:32 ( 22.64, 160.15) 09/17/2022 15:03:07 ( 10.02, 157.14)
